Find Kosmos-763

NORAD ID: 8287 Int'l Des: 1975-086 Owner: GUKOSR Country: SU operational
LEOCIRCULAR

Current View

Loading 3D Globe...

About Kosmos-763

Kosmos-763 (NORAD 8287) is a satellite by GUKOSR of SU. It operates in LEO, CIRCULAR orbit

Upcoming Passes

Passes for default location (London). Set your location on the main map for personalized predictions.

Altitude History

Loading altitude history...

Two-Line Element Set

1 8287U 75086C 26194.45939409 -.00000006 00000-0 68565-4 0 9997
2 8287 74.0066 195.1865 0022220 59.6757 108.1708 12.43564102307027
Epoch: Jul 13, 2026 • Age: 15 hours

Current Status

Altitude 1480.9 km
Apogee / Perigee N/A
Velocity 7.13 km/s
Sub-Earth Point 12.40°N, 118.57°W
Type other

Most Searched